STARLINK-32913, 63098

Orbit data source: Space-Track

STARLINK-32913, 63098 is a payload satellite owned by SpaceX/Seattle (US) in LEO that was launched on Sun, 23 Feb 2025 UTC via an FALCON 9 launch vehicle from the Air Force Western Test Range (AFWTR). Payload-class satellites include a variety of spacecraft equipped with specific instruments for various scientific and technological missions. These include communications satellites like Starlink; space stations such as the ISS; scientific satellites like the Hubble; Earth observation satellites from companies like Planet Labs, Umbra, and HawkEye 360; GPS; miniature CubeSats for education and research; and military/defense satellites.

Loading next visibility...
Identifier
63098, 2025-037X
Orbit
LEO
Country
Flag of USUS
Related business
Manufacturer
SpaceX/Seattle
Mission
Operational Commercial Communications
Bus & Motor
STARLINK V2M, Unknown motor
Mass
730 kg wet, ~700 kg dry
Launch date (UTC)
2025-02-23 (1 year ago)
Launch vehicle
FALCON 9
Launch site
Air Force Western Test Range (AFWTR)
Object type
Payload
Rocket body
Debris
Shape & HBR
Box + 2 Pan, 17.7 m
Radar Cross Section
33.884 m², Large (>1 m²)

Expand to show TLE details & history
Last TLE update: 21 hours ago

TLE from 21 hours ago
0 STARLINK-32913
1 63098U 25037X   26170.96588745  .00000782  00000-0  73281-4 0  9993
2 63098  70.0013  96.5090 0002862 267.5612  92.5220 14.98344193 73933
Epoch: 2026-06-19T23:10Z
TLE epoch observation values (Epoch: 2026-06-19T23:10:52.675Z)
Latitude
0.00002°
Longitude
-159.39776°
Altitude
574.524 km
Speed
7.574 km/s
True Right ascension
06h 26m 02s
True Declination
0° 00' 00"
Sunlit
Object was in daylight at epoch
Visualization orbit readout
Latitude
Unknown
Longitude
Unknown
Altitude
Unknown
Speed
Unknown
Apparent Right ascension
Unknown
Apparent Declination
Unknown
Sunlit
N/A
Visualization observer readout
Local Sidereal Time
07:16:59
Azimuth
Unknown
Elevation
Unknown
Doppler factor
Unknown
Orbital elements
Apogee altitude
571.949 km
Perigee altitude
567.972 km
Semi-major axis
6,948.097 km
Eccentricity
0.00029
Inclination
70.0013°
RAAN
96.509°
Arg. of periapsis
267.5612°
True anomaly
92.55476°
Mean anomaly
92.522°
Eccentric anomaly
92.53838°
Mean motion
3.74752 °/min
Orbital period
96.06 mins
BSTAR
0.000073281
Loading maneuver chart data...
Computing Atmospheric mass density...
Loading historical data...
Loading historical data...
Loading historical data...
Loading historical data...
Loading historical data...
Loading historical data...
Loading historical data...

Documentation

Showing up to 5 results
|